Change the Weather History Date:

Friday, July 13, 2012

  Actual Average Record
Temperature  
Mean Temperature 71 °F 66 °F  
Max Temperature 81 °F 78 °F 86 °F (1979)
Min Temperature 60 °F 53 °F 38 °F (1980)
Degree Days  
Heating Degree Days 0 0  
Month to date heating degree days 1  
Since 1 June heating degree days 146  
Since 1 July heating degree days 1  
Cooling Degree Days 6 3  
Month to date cooling degree days 33  
Year to date cooling degree days 83  
Since 1 June cooling degree days 73  
Growing Degree Days 21 (Base 50)    
Moisture  
Dew Point 58 °F    
Average Humidity 67    
Maximum Humidity 90    
Minimum Humidity 47    
Precipitation  
Precipitation 0.00 in 0.13 in 1.33 in (1964)
Month to date precipitation 1.76  
Year to date precipitation 23.41  
Sea Level Pressure  
Sea Level Pressure 30.21 in    
Wind  
Wind Speed 3 mph (South)    
Max Wind Speed 10 mph    
Max Gust Speed -    
Visibility 8 miles    
Events      
T = Trace of Precipitation, MM = Missing Value Source: NWS Daily Summary

Daily Weather History Graph

Daily Weather History Graph

Search for Another Location

Airport or City:

Trip Planner

Search our weather history database for the weather conditions in past years. The results will help you decide how hot, cold, wet, or windy it might be!

Date:

Astronomy

Jul. 13, 2012 Rise Set
Actual Time 5:51 AM EDT 8:48 PM EDT
Civil Twilight 5:18 AM EDT 9:21 PM EDT
Nautical Twilight 4:36 AM EDT 10:04 PM EDT
Astronomical Twilight 3:46 AM EDT 10:53 PM EDT
Moon 1:28 AM EDT (7/13) 4:15 PM EDT (7/13)
Length of Visible Light 16h 03m
Length of Day
14h 57m
Waning Crescent, 26% of the Moon is Illuminated
Jul 13
Waning Crescent
Jul 19
New
Jul 26
First Quarter
Aug 1
Full
Aug 9
Last Quarter

Hourly Weather History & Observations

Time (EDT) Temp. Heat Index Dew Point Humidity Pressure Visibility Wind Dir Wind Speed Gust Speed Precip Events Conditions
12:53 AM 66.0 °F - 60.1 °F 81% 30.19 in 8.0 mi SE 4.6 mph - N/A   Overcast
1:53 AM 64.0 °F - 60.1 °F 87% 30.20 in 7.0 mi Calm Calm - N/A   Mostly Cloudy
2:53 AM 63.0 °F - 59.0 °F 87% 30.19 in 5.0 mi Calm Calm - N/A   Clear
3:53 AM 62.1 °F - 57.9 °F 86% 30.19 in 4.0 mi ESE 3.5 mph - N/A   Scattered Clouds
4:53 AM 61.0 °F - 57.9 °F 90% 30.19 in 4.0 mi Calm Calm - N/A   Clear
5:53 AM 61.0 °F - 57.9 °F 90% 30.20 in 5.0 mi Calm Calm - N/A   Clear
6:53 AM 63.0 °F - 59.0 °F 87% 30.21 in 5.0 mi Calm Calm - N/A   Clear
7:53 AM 69.1 °F - 57.9 °F 68% 30.21 in 10.0 mi Calm Calm - N/A   Clear
8:53 AM 71.1 °F - 57.9 °F 63% 30.22 in 10.0 mi Variable 4.6 mph - N/A   Clear
9:53 AM 75.9 °F - 60.1 °F 58% 30.23 in 10.0 mi Variable 4.6 mph - N/A   Scattered Clouds
10:53 AM 78.1 °F - 57.9 °F 50% 30.22 in 10.0 mi North 5.8 mph - N/A   Clear
11:53 AM 78.1 °F - 60.1 °F 54% 30.22 in 10.0 mi South 4.6 mph - N/A   Clear
12:53 PM 78.1 °F - 59.0 °F 52% 30.22 in 10.0 mi SSW 5.8 mph - N/A   Clear
1:53 PM 80.1 °F 80.9 °F 60.1 °F 50% 30.22 in 10.0 mi Variable 4.6 mph - N/A   Clear
2:53 PM 81.0 °F 81.3 °F 59.0 °F 47% 30.21 in 10.0 mi SW 5.8 mph - N/A   Clear
3:53 PM 81.0 °F 81.3 °F 59.0 °F 47% 30.20 in 10.0 mi SW 6.9 mph - N/A   Clear
4:53 PM 78.1 °F - 59.0 °F 52% 30.20 in 10.0 mi SSW 8.1 mph - N/A   Clear
5:53 PM 77.0 °F - 60.1 °F 56% 30.19 in 10.0 mi SSW 6.9 mph - N/A   Mostly Cloudy
6:53 PM 77.0 °F - 57.9 °F 52% 30.19 in 10.0 mi South 10.4 mph - N/A   Clear
7:53 PM 75.0 °F - 59.0 °F 57% 30.20 in 10.0 mi SSW 6.9 mph - N/A   Clear
8:53 PM 72.0 °F - 55.9 °F 57% 30.21 in 10.0 mi Calm Calm - N/A   Clear
9:53 PM 66.0 °F - 57.0 °F 73% 30.21 in 10.0 mi Calm Calm - N/A   Clear
10:53 PM 62.1 °F - 55.9 °F 80% 30.21 in 10.0 mi Calm Calm - N/A   Clear
11:53 PM 60.1 °F - 55.9 °F 86% 30.21 in 6.0 mi ESE 4.6 mph - N/A   Clear